TimePST,TemperatureF,Dew PointF,Humidity,Sea Level PressureIn,VisibilityMPH,Wind Direction,Wind SpeedMPH,Gust SpeedMPH,PrecipitationIn,Events,Conditions,WindDirDegrees,DateUTC
12:00 AM,49.3,43.9,82,29.95,-9999.0,North,3.5,-,N/A,,Unknown,360,2012-11-07 08:00:00
1:00 AM,49.5,41.7,75,29.96,-9999.0,WNW,20.7,-,N/A,,Unknown,290,2012-11-07 09:00:00
2:00 AM,48.9,43.0,80,29.97,-9999.0,NW,18.4,-,N/A,,Unknown,310,2012-11-07 10:00:00
3:00 AM,48.4,40.8,75,29.98,-9999.0,WNW,20.7,-,N/A,,Unknown,300,2012-11-07 11:00:00
4:00 AM,48,42,73,30.00,,NW,17.3,,,,,320,2012-11-07 12:00:00
4:00 AM,47.7,42.1,81,30.00,-9999.0,NW,17.3,-,N/A,,Unknown,320,2012-11-07 12:00:00
5:00 AM,47.3,41.7,81,30.01,-9999.0,NW,16.1,-,N/A,,Unknown,310,2012-11-07 13:00:00
6:00 AM,47.3,41.2,79,30.03,-9999.0,NW,12.7,-,N/A,,Unknown,320,2012-11-07 14:00:00
7:00 AM,46.8,39.9,77,30.04,-9999.0,WNW,8.1,-,N/A,,Unknown,290,2012-11-07 15:00:00
9:00 AM,48.2,40.1,74,30.06,-9999.0,SE,3.5,-,N/A,,Unknown,130,2012-11-07 17:00:00
10:00 AM,49,40,63,30.06,,ESE,3.5,,,,,120,2012-11-07 18:00:00
10:00 AM,48.7,40.3,73,30.06,-9999.0,ESE,3.5,-,N/A,,Unknown,120,2012-11-07 18:00:00
11:00 AM,48.7,42.1,78,30.06,-9999.0,ESE,6.9,-,N/A,,Unknown,110,2012-11-07 19:00:00
12:00 PM,49.1,39.9,71,30.05,-9999.0,ESE,9.2,-,N/A,,Unknown,110,2012-11-07 20:00:00
1:00 PM,49.1,41.9,76,30.04,-9999.0,ESE,11.5,-,N/A,,Unknown,110,2012-11-07 21:00:00
2:00 PM,49.1,41.5,75,30.04,-9999.0,East,12.7,-,N/A,,Unknown,90,2012-11-07 22:00:00
3:00 PM,48.7,41.5,76,30.02,-9999.0,East,13.8,-,N/A,,Unknown,100,2012-11-07 23:00:00
4:00 PM,49,43,71,30.01,,ESE,16.1,,,,,120,2012-11-08 00:00:00
4:00 PM,48.6,42.6,80,30.01,-9999.0,ESE,16.1,-,N/A,,Unknown,120,2012-11-08 00:00:00
5:00 PM,48.6,41.0,75,30.00,-9999.0,ESE,17.3,-,N/A,,Unknown,120,2012-11-08 01:00:00
6:00 PM,47.8,42.4,82,30.00,-9999.0,ESE,3.5,-,N/A,,Unknown,120,2012-11-08 02:00:00
7:00 PM,48.4,39.9,73,29.99,-9999.0,ESE,13.8,-,N/A,,Unknown,120,2012-11-08 03:00:00
8:00 PM,47.5,40.1,76,29.98,-9999.0,ESE,11.5,-,N/A,,Unknown,120,2012-11-08 04:00:00
9:00 PM,45.9,38.1,74,29.99,-9999.0,SE,3.5,-,N/A,,Unknown,140,2012-11-08 05:00:00
10:00 PM,44,39,76,29.98,,SSE,2.3,,,,,160,2012-11-08 06:00:00
10:00 PM,44.4,39.0,81,29.98,-9999.0,SSE,2.3,-,N/A,,Unknown,160,2012-11-08 06:00:00
11:00 PM,45.0,41.7,88,29.96,-9999.0,East,10.4,-,0.01,,Unknown,100,2012-11-08 07:00:00